Location: Bennemühlen
(52.5740°N, 9.7135°E)
Time: 02:09:06
(UTC+00:00)

Vanguard 2 Rocket - Pass Details

Date: 17 February 2026
Orbit: 553 x 3287 km, 32.9° (Epoch: 5 March)

Event Time Altitude Azimuth Distance (km) Brightness Sun altitude
Rises 10:15:56 0° 201° (SSW) 7,252 12.2 23.3°
Reaches altitude 10° 10:23:15 10° 186° (S) 6,147 12.4 23.7°
Maximum altitude 10:34:11 19° 151° (SSE) 4,981 12.8 24.2°
Drops below altitude 10° 10:43:18 10° 114° (ESE) 5,046 11.3 24.6°
Sets 10:48:16 0° 98° (E) 5,591 11.2 24.7°
